Date String (YYYY-MM-DD hh:mm:ss) UTC,Instrument flags,absolute air pressure of the measurement (hPa),sample flow rate (lpm),inlet stack bypass flow (lpm),air temperature of the measurement (°C),ambient temperature measured by the external sensor (°C),aerosol sample conditioner tube jacket temperature (°C),OPC LED temperature (°C),internal box temperature (°C),relative humidity of the measurement (%),span deviation,mass concentration of particles derived from Lorenz-Mie calculation of OPC scattering (μg/m³),mass concentration of particles derived from Lorenz-Mie calculation of OPC scattering (μg/m³),mass concentration of particles derived from Lorenz-Mie calculation of OPC scattering (μg/m³)
DateTimeUTC,F1_M11,P_M11,Q1_M11,Q2_M11,T1_M11,T2_M11,T3_M11,T4_M11,T5_M11,U1_M11,ZSPAN_M11,X2_M11,X0_M11,X1_M11
2023-11-08 18:00:00,SystemResetWarning,0831.8,5.01,000.00,026.3,025.3,000.0,034.7,027.8,16.3,0000.0,0001.62,0006.72,0001.33
2023-11-08 18:01:00,SystemResetWarning,0831.9,5.00,000.00,026.3,025.3,000.0,034.7,027.7,16.3,0000.0,0001.57,0006.56,0001.34
2023-11-08 18:02:00,SystemResetWarning,0831.9,4.99,000.00,026.3,025.3,000.0,034.7,027.8,16.4,0000.0,0001.56,0006.50,0001.35
2023-11-08 18:03:00,SystemResetWarning,0832.0,4.99,000.00,026.3,025.3,000.0,034.7,027.8,16.6,0000.0,0001.62,0006.44,0001.36
2023-11-08 18:04:00,SystemResetWarning,0832.0,5.00,000.00,026.3,025.3,000.0,034.7,027.7,16.8,0000.0,0001.63,0006.45,0001.37
2023-11-08 18:05:00,SystemResetWarning,0832.0,5.00,000.00,026.3,025.3,000.0,034.7,027.7,17.2,0000.0,0001.66,0005.85,0001.37
2023-11-08 18:06:00,SystemResetWarning,0832.0,5.01,000.00,026.3,025.3,000.0,034.7,027.7,17.1,0000.0,0001.66,0004.54,0001.37
2023-11-08 18:07:00,SystemResetWarning,0831.9,5.01,000.00,026.3,025.3,000.0,034.7,027.7,16.9,0000.0,0001.62,0004.36,0001.37
2023-11-08 18:08:00,SystemResetWarning,0832.0,5.00,000.00,026.3,025.3,000.0,034.7,027.7,16.9,0000.0,0001.62,0004.41,0001.37
2023-11-08 18:09:00,SystemResetWarning,0832.0,4.99,000.00,026.3,025.3,000.0,034.7,027.7,17.1,0000.0,0001.62,0004.43,0001.36
2023-11-08 18:10:00,SystemResetWarning,0832.0,4.99,000.00,026.3,025.3,000.0,034.7,027.8,17.2,0000.0,0001.63,0003.25,0001.36
2023-11-08 18:11:00,SystemResetWarning,0832.0,5.00,000.00,026.3,025.3,000.0,034.7,027.8,17.1,0000.0,0001.64,0002.51,0001.36
2023-11-08 18:12:00,SystemResetWarning,0832.0,5.01,000.00,026.3,025.3,000.0,034.7,027.7,17.2,0000.0,0001.66,0002.57,0001.37
2023-11-08 18:13:00,SystemResetWarning,0832.1,5.01,000.00,026.3,025.3,000.0,034.7,027.7,17.2,0000.0,0001.70,0002.64,0001.37
2023-11-08 18:14:00,SystemResetWarning,0832.0,5.00,000.00,026.3,025.3,000.0,034.7,027.7,17.1,0000.0,0001.69,0002.58,0001.38
2023-11-08 18:15:00,SystemResetWarning,0832.1,4.99,000.00,026.3,025.3,000.0,034.7,027.7,17.2,0000.0,0001.71,0002.58,0001.39
2023-11-08 18:16:00,SystemResetWarning,0832.1,4.99,000.00,026.3,025.3,000.0,034.7,027.7,17.4,0000.0,0001.77,0002.59,0001.41
2023-11-08 18:17:00,SystemResetWarning,0832.0,5.01,000.00,026.3,025.3,000.0,034.7,027.7,17.5,0000.0,0001.79,0002.59,0001.42
2023-11-08 18:18:00,SystemResetWarning,0832.1,5.01,000.00,026.3,025.2,000.0,034.7,027.8,17.7,0000.0,0001.82,0002.62,0001.43
2023-11-08 18:19:00,SystemResetWarning,0832.1,5.00,000.00,026.3,025.2,000.0,034.7,027.7,17.7,0000.0,0001.83,0002.64,0001.44
2023-11-08 18:20:00,SystemResetWarning,0832.2,4.98,000.00,026.3,025.3,000.0,034.7,027.7,17.7,0000.0,0001.87,0002.77,0001.48
2023-11-08 18:21:00,SystemResetWarning,0832.2,5.00,000.00,026.3,025.3,000.0,034.7,027.7,17.9,0000.0,0001.88,0002.76,0001.50
2023-11-08 18:22:00,SystemResetWarning,0832.2,5.01,000.00,026.2,025.2,000.0,034.7,027.7,18.0,0000.0,0001.90,0002.80,0001.52
2023-11-08 18:23:00,SystemResetWarning,0832.2,5.01,000.00,026.3,025.3,000.0,034.7,027.7,18.0,0000.0,0001.93,0002.83,0001.53
2023-11-08 18:24:00,SystemResetWarning,0832.2,5.01,000.00,026.2,025.2,000.0,034.6,027.6,18.0,0000.0,0001.90,0002.74,0001.54
2023-11-08 18:25:00,SystemResetWarning,0832.2,4.99,000.00,026.2,025.2,000.0,034.7,027.7,17.9,0000.0,0001.89,0002.99,0001.55
2023-11-08 18:26:00,SystemResetWarning,0832.2,5.00,000.00,026.2,025.2,000.0,034.6,027.7,17.8,0000.0,0001.90,0003.04,0001.56
2023-11-08 18:27:00,SystemResetWarning,0832.2,4.99,000.00,026.2,025.2,000.0,034.6,027.6,17.8,0000.0,0001.83,0002.95,0001.57
2023-11-08 18:28:00,SystemResetWarning,0832.1,5.00,000.00,026.2,025.2,000.0,034.6,027.7,17.9,0000.0,0001.88,0004.07,0001.57
2023-11-08 18:29:00,SystemResetWarning,0832.1,5.00,000.00,026.2,025.2,000.0,034.6,027.6,18.1,0000.0,0001.88,0005.12,0001.57
2023-11-08 18:30:00,SystemResetWarning,0832.2,5.00,000.00,026.2,025.2,000.0,034.6,027.6,17.9,0000.0,0001.87,0005.04,0001.57
2023-11-08 18:31:00,SystemResetWarning,0832.1,5.00,000.00,026.2,025.2,000.0,034.6,027.6,18.1,0000.0,0001.83,0004.88,0001.55
2023-11-08 18:32:00,SystemResetWarning,0832.1,5.00,000.00,026.2,025.2,000.0,034.6,027.6,18.2,0000.0,0001.84,0004.91,0001.55
2023-11-08 18:33:00,SystemResetWarning,0832.1,5.00,000.00,026.2,025.2,000.0,034.6,027.7,18.1,0000.0,0001.85,0004.94,0001.55
2023-11-08 18:34:00,SystemResetWarning,0832.1,5.00,000.00,026.2,025.1,000.0,034.6,027.5,18.1,0000.0,0001.88,0005.04,0001.55
2023-11-08 18:35:00,SystemResetWarning,0832.1,5.00,000.00,026.2,025.1,000.0,034.6,027.5,18.0,0000.0,0001.91,0005.12,0001.55
2023-11-08 18:36:00,SystemResetWarning,0832.1,5.00,000.00,026.2,025.1,000.0,034.6,027.5,18.1,0000.0,0001.91,0004.87,0001.56
2023-11-08 18:37:00,SystemResetWarning,0832.1,5.00,000.00,026.2,025.1,000.0,034.6,027.6,18.2,0000.0,0001.94,0004.85,0001.56
2023-11-08 18:38:00,SystemResetWarning,0832.2,5.00,000.00,026.2,025.1,000.0,034.6,027.5,18.2,0000.0,0001.93,0004.82,0001.56
2023-11-08 18:39:00,SystemResetWarning,0832.2,5.00,000.00,026.1,025.0,000.0,034.6,027.5,18.3,0000.0,0001.91,0004.06,0001.57
2023-11-08 18:40:00,SystemResetWarning,0832.2,5.00,000.00,026.1,025.0,000.0,034.6,027.5,18.4,0000.0,0001.94,0002.76,0001.59
2023-11-08 18:41:00,SystemResetWarning,0832.1,5.00,000.00,026.1,025.0,000.0,034.6,027.5,18.4,0000.0,0002.03,0002.97,0001.62
2023-11-08 18:42:00,SystemResetWarning,0832.1,5.00,000.00,026.1,025.0,000.0,034.6,027.5,18.3,0000.0,0002.07,0002.95,0001.64
2023-11-08 18:43:00,SystemResetWarning,0832.1,5.00,000.00,026.1,025.0,000.0,034.5,027.4,18.3,0000.0,0002.07,0002.94,0001.65
2023-11-08 18:44:00,SystemResetWarning,0832.1,5.00,000.00,026.1,025.0,000.0,034.5,027.4,18.3,0000.0,0002.11,0003.44,0001.66
2023-11-08 18:45:00,SystemResetWarning,0832.2,5.00,000.00,026.1,025.0,000.0,034.5,027.4,18.2,0000.0,0002.09,0003.37,0001.67
2023-11-08 18:46:00,SystemResetWarning,0832.2,5.00,000.00,026.1,024.9,000.0,034.5,027.4,18.2,0000.0,0002.09,0003.36,0001.68
2023-11-08 18:47:00,SystemResetWarning,0832.2,5.00,000.00,026.0,024.9,000.0,034.5,027.4,18.1,0000.0,0002.15,0003.50,0001.71
2023-11-08 18:48:00,SystemResetWarning,0832.2,5.00,000.00,026.0,024.9,000.0,034.5,027.4,18.3,0000.0,0002.19,0003.58,0001.72
2023-11-08 18:49:00,SystemResetWarning,0832.2,5.01,000.00,026.0,024.9,000.0,034.5,027.4,18.3,0000.0,0002.26,0003.80,0001.74
2023-11-08 18:50:00,SystemResetWarning,0832.2,5.00,000.00,026.0,024.8,000.0,034.5,027.4,18.2,0000.0,0002.27,0003.90,0001.74
2023-11-08 18:51:00,SystemResetWarning,0832.2,4.99,000.00,026.0,024.8,000.0,034.5,027.4,18.2,0000.0,0002.29,0004.23,0001.76
2023-11-08 18:52:00,SystemResetWarning,0832.2,5.00,000.00,026.0,024.8,000.0,034.5,027.4,18.1,0000.0,0002.27,0004.38,0001.77
2023-11-08 18:53:00,SystemResetWarning,0832.2,5.00,000.00,026.0,024.8,000.0,034.5,027.4,18.1,0000.0,0002.27,0004.37,0001.78
2023-11-08 18:54:00,SystemResetWarning,0832.2,5.00,000.00,026.0,024.8,000.0,034.4,027.4,18.2,0000.0,0002.29,0004.40,0001.79
2023-11-08 18:55:00,SystemResetWarning,0832.2,5.00,000.00,026.0,024.8,000.0,034.4,027.3,18.2,0000.0,0002.27,0003.90,0001.80
2023-11-08 18:56:00,SystemResetWarning,0832.2,5.00,000.00,026.0,024.7,000.0,034.4,027.3,18.3,0000.0,0002.30,0003.94,0001.82
2023-11-08 18:57:00,SystemResetWarning,0832.2,5.00,000.00,026.0,024.7,000.0,034.4,027.3,18.2,0000.0,0002.32,0004.73,0001.82
2023-11-08 18:58:00,SystemResetWarning,0832.2,5.01,000.00,025.9,024.7,000.0,034.4,027.3,18.3,0000.0,0002.32,0004.77,0001.82
2023-11-08 18:59:00,SystemResetWarning,0832.2,5.00,000.00,025.9,024.7,000.0,034.4,027.3,18.3,0000.0,0002.28,0004.66,0001.81
